Temperature
8 8 9 9 9 9 9 9 9 9 9 10 10 10 10 10 10 10 10 10 10 10 10 10 10 10 10 10 10 10 10 10 10 10 10 10 10 10 11 11 11 11 11
8 8 8 8 8 8 9 9 9 9 9 9 9 9 9 9 9 9 9 9 9 9 9 9 9 9 9 9 9 9 10 10 10 10 10 10 10 10 10 10 10 10 10
7 7 7 7 7 8 8 8 8 8 8 8 8 8 9 9 9 9 9 9 9 9 9 9 9 9 9 9 9 9 9 9 9 9 9 9 10 10 10 10 10 10 10
6 6 6 7 7 7 7 7 7 7 7 7 8 8 8 8 8 8 8 8 8 8 8 8 8 8 8 8 8 9 9 9 9 9 9 9 9 9 9 9 9 10 10
6 6 6 6 6 6 6 6 7 7 7 7 7 7 7 7 7 7 7 7 7 7 8 8 8 8 8 8 8 8 8 8 8 8 8 8 9 9 9 9 9 9 9
5 5 5 5 5 6 6 6 6 6 6 6 6 6 6 6 6 6 7 7 7 7 7 7 7 7 7 8 8 8 8 8 8 8 8 8 8 8 8 8 8 9 9
5 5 5 5 5 5 5 5 5 5 5 5 5 5 5 5 5 6 6 6 6 6 6 6 6 7 7 7 7 7 7 7 7 7 7 7 8 8 8 8 8 8 8
4 4 4 4 4 4 4 4 4 4 4 4 4 4 4 4 4 4 5 5 5 5 5 5 6 6 6 6 6 6 7 7 6 7 7 7 7 7 7 7 8 8 8
3 3 3 3 4 4 4 4 3 3 4 3 3 3 3 3 3 3 4 4 4 4 4 4 5 5 5 5 5 6 6 6 6 6 6 6 6 7 7 7 7 7 7
3 3 3 3 3 3 3 3 3 3 3 3 3 3 3 3 2 2 2 3 3 3 3 4 4 4 4 4 4 5 5 5 5 5 5 5 5 6 6 6 6 7 7
2 2 2 2 2 2 2 2 2 2 2 2 2 2 2 2 2 2 1 2 2 2 2 2 3 3 3 3 3 4 4 4 4 4 4 4 5 5 5 5 6 6 6
1 1 1 1 1 1 1 1 1 1 1 1 1 1 1 1 1 1 1 1 1 1 1 1 2 2 2 2 3 3 3 3 3 4 4 4 4 4 5 5 5 5 5
0 0 0 0 0 0 0 0 0 0 0 0 0 -0 -0 -0 -0 -0 0 -0 -0 -0 0 0 1 1 1 1 1 2 2 2 2 3 3 3 3 3 4 4 4 4 5
-1 -1 -1 -1 -1 -1 -1 -1 -1 -1 -1 -1 -1 -1 -1 -1 -1 -1 -1 -1 -1 -1 -1 -0 -0 0 0 0 0 1 1 1 2 2 2 2 2 3 3 3 3 4 4
-1 -1 -1 -1 -1 -1 -1 -1 -1 -1 -1 -2 -2 -2 -2 -2 -2 -2 -2 -2 -2 -2 -2 -1 -1 -1 -1 -0 -0 -0 0 1 1 1 1 1 2 2 2 2 3 3 3
-2 -2 -2 -2 -2 -2 -2 -2 -2 -2 -2 -2 -2 -2 -2 -2 -2 -2 -2 -2 -2 -2 -3 -2 -2 -2 -1 -1 -1 -1 -1 -0 -0 0 0 1 1 1 1 1 2 2 2
-3 -3 -3 -3 -3 -3 -3 -3 -3 -3 -3 -3 -3 -3 -3 -3 -3 -3 -3 -3 -3 -3 -3 -3 -3 -2 -2 -2 -2 -2 -1 -1 -1 -1 -0 -0 -0 0 0 0 1 1 1
-4 -4 -4 -4 -4 -4 -4 -4 -4 -4 -4 -4 -4 -4 -4 -4 -4 -4 -4 -4 -4 -4 -4 -4 -3 -3 -3 -3 -3 -2 -2 -2 -2 -1 -1 -1 -1 -1 -1 -0 -0 0 0
-4 -4 -4 -4 -4 -4 -4 -4 -4 -5 -4 -4 -4 -4 -4 -4 -4 -4 -4 -4 -4 -4 -5 -4 -4 -4 -4 -4 -4 -3 -3 -3 -3 -2 -2 -2 -2 -1 -1 -1 -1 -1 -0
-5 -5 -5 -5 -5 -5 -5 -5 -5 -5 -5 -5 -5 -5 -5 -5 -5 -5 -5 -5 -5 -5 -5 -5 -5 -5 -5 -5 -5 -4 -4 -4 -3 -3 -3 -3 -2 -2 -2 -2 -2 -1 -1
-6 -5 -5 -5 -5 -6 -6 -6 -6 -6 -6 -6 -5 -5 -5 -5 -6 -6 -6 -6 -6 -6 -6 -6 -6 -6 -5 -5 -5 -5 -5 -5 -4 -4 -4 -3 -3 -3 -3 -3 -3 -2 -2
-6 -6 -6 -6 -6 -6 -6 -6 -7 -7 -7 -6 -6 -6 -6 -6 -6 -6 -7 -7 -7 -7 -6 -6 -6 -6 -6 -6 -6 -6 -6 -6 -5 -5 -5 -4 -4 -4 -4 -3 -3 -3 -3
-7 -7 -7 -7 -7 -7 -7 -7 -7 -7 -7 -7 -7 -7 -7 -7 -7 -7 -7 -7 -7 -7 -7 -7 -7 -7 -7 -6 -7 -7 -6 -6 -6 -6 -6 -5 -5 -5 -4 -4 -4 -4 -4
-7 -7 -7 -7 -7 -7 -7 -8 -8 -8 -8 -8 -8 -8 -7 -7 -7 -7 -7 -7 -7 -7 -7 -7 -7 -7 -7 -7 -7 -7 -7 -7 -7 -7 -7 -6 -6 -5 -5 -5 -5 -5 -5
-8 -8 -8 -8 -8 -8 -8 -8 -8 -8 -8 -8 -8 -8 -8 -8 -8 -8 -8 -8 -8 -8 -8 -8 -8 -8 -8 -8 -8 -8 -8 -8 -7 -7 -7 -7 -7 -6 -6 -5 -5 -5 -5
-9 -9 -8 -8 -8 -8 -9 -9 -9 -9 -9 -9 -9 -9 -9 -9 -9 -9 -9 -9 -9 -8 -8 -8 -8 -8 -8 -8 -8 -8 -8 -8 -8 -8 -7 -8 -7 -7 -7 -6 -6 -6 -6
Wind_Speed
6 6 6 7 7 7 7 6 6 6 7 7 7 7 7 7 7 7 7 9 9 8 7 7 7 7 8 8 7 7 7 6 5 5 4 4 3 3 3 2 3 3 4
6 5 6 6 6 6 6 5 5 5 5 5 6 7 6 7 7 7 7 8 10 10 8 8 7 7 8 8 8 8 6 6 5 5 4 3 4 3 3 3 3 3 3
6 5 5 5 5 5 6 6 6 6 5 5 5 6 6 6 6 6 6 7 8 9 10 8 7 7 7 8 8 9 9 7 5 4 4 3 3 3 2 2 2 2 2
6 6 5 4 4 5 5 4 4 4 4 4 4 4 5 5 6 6 6 7 7 8 8 9 8 8 7 7 7 8 8 8 7 5 4 3 3 3 3 2 2 2 2
5 5 4 4 4 5 4 4 3 2 3 3 3 3 4 4 4 5 6 7 7 7 7 8 8 8 8 7 7 7 7 6 6 5 4 3 3 3 2 2 2 1 1
5 5 4 4 4 4 4 3 2 3 2 2 2 3 3 3 4 5 5 6 6 7 7 8 8 7 7 7 7 7 6 5 5 6 5 3 2 2 1 1 2 1 1
4 5 4 4 4 3 3 3 2 2 3 2 2 2 3 3 4 4 5 6 7 7 8 7 7 7 7 7 7 7 7 6 5 5 5 4 3 2 2 1 2 1 1
3 3 4 3 3 3 3 3 2 1 2 2 1 1 1 2 3 4 3 4 6 7 8 8 8 8 7 7 8 9 8 7 6 5 5 5 5 4 3 3 3 3 3
3 3 3 3 3 3 2 1 1 2 1 1 2 1 1 1 2 2 3 3 4 4 5 6 7 8 7 7 8 8 8 8 7 7 6 6 5 5 5 4 5 4 3
3 3 2 2 2 2 1 1 1 0 2 0 1 2 1 1 1 1 2 3 3 3 3 4 5 6 7 7 7 9 9 8 8 7 7 7 7 7 7 7 6 5 5
2 2 2 2 2 1 1 1 1 1 1 1 0 1 1 1 1 1 2 3 3 3 3 3 3 4 5 6 7 9 9 9 8 8 7 7 7 8 8 8 8 7 6
1 2 1 2 1 1 1 0 0 0 0 0 0 0 0 0 1 1 2 2 3 3 3 2 2 3 5 6 7 10 9 9 9 9 8 8 7 8 8 8 9 9 8
1 1 1 0 0 1 1 1 0 0 0 1 1 1 1 1 0 1 1 2 2 3 2 2 1 3 4 6 7 10 10 9 9 9 9 9 8 9 9 9 8 9 9
2 2 1 1 1 1 1 1 1 1 0 1 1 1 1 1 1 1 1 1 2 2 2 2 2 2 5 6 8 10 10 11 9 9 9 9 9 9 9 9 9 8 9
1 1 2 2 2 1 1 1 1 1 1 1 1 1 1 1 1 1 1 2 2 3 4 3 2 3 6 7 8 8 9 11 10 9 9 9 9 9 9 9 8 8 8
2 2 2 2 2 2 2 2 2 2 1 1 1 1 1 1 1 1 1 1 2 3 4 3 3 3 5 6 8 8 8 10 10 10 9 10 9 9 9 9 9 9 9
2 2 2 2 2 2 2 2 2 2 3 2 2 2 3 2 1 1 1 1 2 2 4 4 3 3 4 5 7 8 8 8 8 10 10 10 9 9 9 9 9 9 9
3 3 2 2 3 3 3 3 4 3 3 4 4 3 3 2 2 2 2 2 2 2 3 4 4 3 4 4 5 6 7 7 8 10 11 10 9 9 10 10 9 9 9
3 3 3 3 3 3 4 4 5 5 5 5 5 5 4 4 4 3 3 3 3 3 2 3 4 4 4 4 4 5 6 6 7 9 10 10 9 10 10 10 10 9 9
3 4 4 4 4 4 5 5 5 5 5 5 5 5 5 5 5 5 4 4 4 3 3 3 4 4 4 4 3 4 5 3 5 7 9 9 9 10 10 10 10 10 10
4 4 4 4 5 5 5 5 6 6 6 5 5 5 6 7 8 6 5 4 4 3 3 3 4 4 4 3 4 3 5 5 5 4 4 6 7 7 9 10 11 10 10
3 3 4 4 5 5 8 10 8 5 6 6 6 6 6 8 8 9 9 8 7 5 5 5 5 5 5 4 4 4 4 5 5 3 3 5 6 6 8 9 11 11 11
3 3 4 5 6 7 11 11 11 6 6 6 6 5 6 6 8 5 8 9 9 11 10 6 6 7 6 6 5 6 6 6 6 5 4 6 5 5 8 10 11 11 11
3 4 5 5 6 8 11 12 11 7 5 6 6 6 7 6 7 7 6 5 5 7 9 7 6 7 7 7 7 7 7 6 6 5 4 5 5 5 7 9 10 10 9
4 4 5 5 6 8 12 12 11 5 5 6 7 7 7 7 11 11 7 6 6 6 9 11 11 11 11 11 9 4 4 5 6 5 3 4 4 4 4 5 8 8 8
4 5 5 5 6 7 12 12 10 5 6 6 6 7 11 10 12 12 7 6 7 7 5 6 7 8 8 9 9 6 4 5 5 5 3 3 3 3 4 3 4 5 7
Wind_Direction
68 63 56 53 47 45 42 36 33 30 33 36 40 48 44 51 53 46 43 44 45 52 66 69 68 69 67 67 67 64 58 61 65 67 77 85 109 108 102 114 109 116 113
82 73 59 51 43 39 38 39 34 32 32 37 39 43 47 55 57 50 44 42 41 43 52 62 64 63 62 61 58 57 55 57 64 63 64 73 94 108 107 102 104 109 117
85 81 64 47 38 40 43 45 42 42 36 34 30 34 40 47 55 52 50 47 43 40 43 50 55 58 55 55 53 51 49 50 53 60 60 60 81 91 113 115 98 98 90
89 85 64 44 41 51 47 38 34 39 33 28 20 18 29 40 48 52 57 51 49 43 40 42 44 47 46 44 46 44 43 46 42 52 58 56 73 81 82 95 92 83 85
90 87 70 50 58 54 43 36 33 49 38 24 17 19 19 31 41 54 57 52 53 51 46 39 38 39 37 36 36 35 38 45 39 43 46 46 55 63 68 66 72 71 71
90 86 72 55 61 53 42 35 40 39 48 20 26 21 9 24 47 49 52 52 50 49 48 44 38 31 27 26 26 28 31 42 38 33 29 29 33 27 23 29 33 35 49
90 85 67 57 54 57 52 44 45 50 37 28 44 20 8 19 47 43 44 46 40 40 43 41 39 35 23 15 13 15 16 24 29 25 18 15 3 347 330 323 308 303 282
96 91 78 63 58 61 58 50 52 66 36 22 52 56 22 358 10 12 24 42 36 38 36 33 37 35 27 22 14 11 11 13 12 11 7 3 4 343 309 300 300 290 281
100 104 99 85 68 79 107 84 86 83 98 347 22 92 130 211 320 337 10 27 25 27 24 27 31 28 25 23 11 6 5 3 2 3 3 357 352 352 350 306 287 285 288
85 98 102 96 82 71 95 110 61 74 135 148 341 5 48 144 161 307 330 353 352 357 5 14 16 16 18 15 11 5 1 357 353 347 350 353 353 349 345 348 332 306 291
62 85 94 88 71 54 57 57 49 70 136 154 148 332 2 16 56 210 272 308 328 327 346 351 13 18 13 12 5 360 0 356 348 342 339 339 344 344 344 345 343 338 329
24 36 69 79 68 38 15 0 65 110 176 147 144 129 151 199 251 242 261 289 298 301 319 334 19 27 11 5 357 353 351 350 345 340 335 331 333 333 332 335 336 337 337
242 287 342 52 5 320 314 331 34 201 206 187 203 239 236 249 246 260 257 281 293 299 299 300 338 3 358 356 351 350 346 340 338 334 332 332 331 331 329 328 328 331 335
223 238 233 228 240 242 272 334 325 288 323 217 245 233 245 256 237 243 228 242 294 296 283 274 304 337 350 344 341 346 344 338 333 333 331 335 337 333 327 326 327 329 331
239 225 229 226 230 232 228 223 247 259 263 245 243 245 251 262 261 249 228 210 209 257 267 268 286 321 331 325 329 336 334 336 334 332 333 333 335 334 330 328 328 329 328
236 218 222 226 230 234 237 217 227 240 221 253 259 238 256 264 270 267 235 240 226 225 252 257 269 301 314 316 319 327 327 328 332 327 327 327 325 325 326 326 325 325 325
222 219 227 228 231 232 236 231 239 223 218 234 248 240 251 251 249 260 256 249 243 231 254 280 289 302 304 310 314 318 318 317 319 320 316 315 317 318 317 319 320 320 321
226 229 231 235 240 241 237 229 242 242 227 231 237 236 245 249 244 248 252 255 252 244 243 271 289 295 292 291 298 306 312 312 311 312 312 308 310 312 312 311 314 315 315
230 239 233 230 242 251 245 239 235 240 236 234 234 234 239 235 243 246 242 244 253 262 254 256 277 289 292 293 300 302 304 306 306 308 310 305 305 307 308 306 307 309 311
235 235 242 243 247 253 255 247 240 239 240 241 241 238 236 233 235 238 241 237 241 249 253 254 267 278 284 287 285 295 302 298 300 304 301 301 303 305 305 306 304 302 304
248 247 247 251 254 250 248 242 234 234 238 241 242 243 246 247 245 242 243 231 228 238 245 255 265 276 280 288 282 284 291 302 296 287 289 297 300 298 298 296 295 291 294
253 251 251 253 255 257 260 256 251 235 236 237 242 245 249 254 256 258 259 252 243 240 241 247 256 260 266 270 279 281 289 297 294 279 281 289 288 280 284 285 283 285 289
249 252 253 254 257 260 263 262 259 253 235 235 236 241 252 254 258 259 260 260 260 259 254 247 245 249 255 254 259 269 267 270 272 278 283 283 281 276 279 282 284 283 285
246 248 253 253 259 265 266 265 264 259 240 237 238 237 243 245 249 251 244 249 253 261 262 257 245 248 249 245 243 251 258 268 275 271 257 273 281 279 282 284 282 280 285
255 256 254 253 257 269 271 268 267 255 248 247 248 245 245 243 251 255 249 245 257 264 269 265 262 264 265 263 256 253 250 262 276 276 250 251 275 286 282 274 280 280 287
255 261 266 260 258 265 274 271 267 251 249 251 252 249 251 253 255 254 243 237 248 256 259 266 269 274 274 271 269 251 237 248 265 271 248 239 270 292 294 275 274 291 296
Height
1544 1544 1544 1544 1544 1545 1545 1545 1545 1546 1546 1546 1546 1547 1547 1547 1547 1548 1548 1548 1549 1549 1549 1549 1549 1549 1549 1549 1548 1548 1548 1548 1548 1549 1549 1550 1550 1550 1551 1551 1552 1552 1552
1543 1543 1543 1543 1543 1543 1544 1544 1544 1544 1544 1544 1545 1545 1545 1545 1546 1546 1547 1547 1547 1547 1548 1548 1548 1548 1548 1547 1547 1547 1547 1547 1547 1547 1548 1548 1549 1549 1550 1550 1551 1551 1551
1541 1541 1541 1542 1542 1542 1542 1542 1542 1543 1542 1542 1543 1543 1543 1544 1544 1545 1545 1545 1546 1546 1546 1546 1546 1547 1546 1546 1546 1546 1546 1546 1546 1546 1546 1547 1548 1548 1548 1549 1549 1550 1550
1539 1540 1540 1540 1540 1540 1540 1540 1540 1540 1540 1540 1540 1541 1541 1542 1542 1543 1543 1543 1544 1544 1544 1545 1545 1545 1545 1545 1545 1545 1544 1545 1545 1545 1545 1545 1546 1546 1547 1547 1548 1549 1549
1537 1537 1538 1538 1538 1538 1538 1538 1538 1538 1538 1538 1538 1539 1539 1539 1539 1540 1541 1541 1541 1542 1542 1543 1543 1543 1543 1543 1543 1543 1543 1543 1543 1543 1543 1544 1544 1545 1545 1546 1546 1547 1547
1534 1535 1535 1536 1536 1536 1536 1536 1536 1536 1536 1536 1536 1536 1537 1537 1537 1538 1538 1539 1539 1540 1540 1540 1540 1541 1541 1541 1541 1541 1541 1541 1541 1541 1542 1542 1542 1543 1543 1544 1544 1545 1545
1532 1532 1533 1533 1533 1533 1534 1534 1534 1533 1533 1533 1533 1533 1534 1534 1534 1535 1535 1536 1536 1537 1537 1537 1538 1538 1538 1538 1538 1538 1538 1538 1538 1539 1539 1540 1540 1541 1541 1542 1542 1542 1543
1529 1529 1530 1530 1530 1530 1531 1531 1531 1531 1531 1531 1531 1531 1531 1533 1532 1532 1533 1533 1533 1534 1534 1534 1535 1535 1535 1535 1535 1535 1536 1536 1536 1536 1536 1537 1537 1538 1538 1539 1539 1540 1540
1526 1526 1527 1527 1527 1527 1527 1528 1528 1528 1528 1529 1529 1530 1529 1529 1529 1529 1529 1530 1530 1530 1531 1531 1532 1532 1532 1532 1532 1532 1533 1533 1533 1533 1533 1534 1534 1535 1535 1536 1536 1537 1537
1523 1523 1523 1523 1524 1524 1524 1524 1525 1525 1525 1525 1526 1527 1528 1527 1527 1526 1526 1527 1527 1527 1527 1528 1528 1528 1529 1529 1529 1529 1529 1529 1529 1529 1530 1530 1530 1531 1532 1532 1532 1533 1533
1519 1519 1520 1520 1520 1520 1520 1521 1521 1522 1522 1522 1523 1523 1524 1524 1524 1524 1523 1523 1523 1524 1524 1524 1524 1525 1525 1525 1525 1525 1525 1526 1526 1526 1526 1526 1527 1527 1528 1528 1529 1529 1529
1515 1515 1515 1516 1516 1516 1517 1517 1518 1518 1519 1519 1520 1520 1520 1521 1521 1521 1520 1519 1519 1520 1521 1521 1521 1521 1521 1521 1521 1521 1521 1522 1522 1522 1522 1523 1523 1523 1524 1524 1525 1525 1525
1510 1511 1511 1512 1512 1513 1513 1514 1514 1514 1515 1515 1516 1517 1517 1517 1518 1518 1518 1517 1516 1516 1517 1517 1518 1518 1517 1517 1517 1517 1517 1518 1518 1518 1518 1519 1519 1519 1519 1520 1520 1521 1521
1507 1507 1508 1508 1509 1509 1510 1510 1510 1511 1511 1512 1512 1513 1513 1514 1514 1514 1515 1514 1513 1513 1513 1513 1514 1514 1514 1514 1513 1513 1513 1513 1514 1514 1514 1515 1514 1515 1515 1516 1516 1516 1516
1503 1503 1504 1504 1505 1505 1506 1506 1506 1506 1507 1508 1508 1509 1509 1510 1510 1511 1511 1511 1512 1510 1509 1509 1510 1510 1510 1510 1510 1510 1509 1509 1509 1509 1510 1510 1510 1510 1511 1511 1511 1512 1512
1498 1499 1499 1500 1500 1501 1501 1502 1502 1502 1503 1503 1504 1505 1505 1506 1506 1506 1507 1507 1508 1508 1506 1505 1506 1506 1506 1506 1506 1506 1505 1505 1505 1505 1505 1506 1506 1506 1506 1506 1507 1507 1507
1494 1495 1495 1495 1496 1496 1496 1497 1497 1498 1498 1499 1500 1500 1501 1501 1501 1502 1502 1502 1503 1503 1502 1501 1502 1502 1502 1502 1502 1502 1501 1501 1501 1501 1501 1501 1501 1502 1502 1502 1502 1503 1503
1490 1490 1491 1491 1491 1492 1492 1492 1493 1493 1494 1494 1495 1496 1496 1496 1496 1497 1497 1498 1498 1499 1499 1497 1497 1498 1498 1498 1497 1497 1497 1496 1497 1497 1497 1497 1497 1497 1497 1498 1498 1498 1498
1486 1486 1486 1486 1487 1487 1488 1488 1488 1489 1489 1490 1490 1491 1491 1492 1492 1492 1493 1493 1494 1494 1495 1494 1493 1493 1493 1493 1493 1492 1492 1492 1492 1492 1492 1492 1492 1492 1492 1493 1493 1493 1493
1481 1482 1482 1482 1482 1483 1483 1484 1484 1484 1485 1485 1486 1486 1486 1487 1487 1488 1488 1488 1489 1489 1490 1490 1489 1489 1489 1489 1489 1488 1487 1487 1487 1487 1487 1487 1487 1487 1487 1487 1488 1488 1488
1477 1477 1478 1478 1478 1478 1479 1479 1479 1480 1480 1480 1481 1481 1482 1482 1482 1483 1484 1484 1484 1485 1485 1485 1485 1484 1484 1484 1484 1484 1483 1482 1482 1482 1482 1482 1482 1482 1482 1482 1482 1482 1482
1472 1473 1473 1473 1473 1473 1474 1474 1475 1475 1475 1475 1475 1476 1476 1477 1478 1478 1479 1479 1480 1480 1480 1481 1480 1480 1480 1480 1480 1480 1479 1478 1477 1478 1477 1477 1477 1476 1476 1477 1477 1477 1477
1468 1468 1468 1468 1469 1469 1469 1469 1469 1470 1470 1470 1470 1470 1471 1472 1472 1473 1473 1474 1474 1475 1476 1476 1475 1475 1475 1475 1475 1475 1475 1474 1473 1473 1473 1471 1471 1471 1471 1471 1471 1472 1472
1463 1463 1463 1463 1464 1464 1464 1464 1464 1465 1464 1464 1464 1465 1465 1466 1467 1467 1468 1468 1468 1469 1470 1470 1470 1470 1470 1470 1471 1471 1470 1469 1468 1468 1469 1466 1465 1465 1466 1466 1466 1466 1466
1458 1458 1458 1458 1458 1458 1458 1459 1459 1459 1458 1458 1459 1459 1460 1460 1461 1462 1462 1462 1462 1463 1464 1464 1465 1465 1465 1465 1465 1465 1464 1464 1462 1462 1463 1462 1461 1460 1460 1459 1460 1460 1460
1453 1453 1453 1453 1453 1453 1453 1453 1453 1453 1452 1452 1453 1453 1454 1454 1455 1456 1456 1456 1456 1457 1457 1457 1458 1458 1459 1459 1459 1459 1459 1459 1457 1457 1457 1458 1456 1456 1454 1453 1454 1454 1454